FW2068 Weather Reports


Display with metric or nautical units.
time (UTC)temp
F
wind
direction
speed
MPH
gust
MPH
rain 1hr
in
rain 24hr
in
rain mn
in
humidity
%
barometer
mb
20260503000538 77 242 0.0 3.0 0.00 0.00 0.00 33 1018.4
20260503000035 77 295 2.0 4.0 0.00 0.00 0.00 35 1018.4
20260502235531 77 300 2.0 3.0 0.00 0.00 0.00 34 1018.3
20260502235029 77 305 4.0 5.0 0.00 0.00 0.00 33 1018.4
20260502234525 77 280 4.0 6.0 0.00 0.00 0.00 33 1018.3
20260502234024 77 303 5.0 8.0 0.00 0.00 0.00 33 1018.5
20260502233523 79 304 2.0 4.0 0.00 0.00 0.00 32 1018.7
20260502233021 79 317 2.0 4.0 0.00 0.00 0.00 33 1018.5
20260502232517 79 4 3.0 4.0 0.00 0.00 0.00 31 1018.4
20260502232014 79 334 2.0 4.0 0.00 0.00 0.00 32 1018.5
20260502231511 78 263 0.0 4.0 0.00 0.00 0.00 33 1018.7
20260502231009 80 294 3.0 3.0 0.00 0.00 0.00 31 1018.7
20260502230507 79 1 2.0 3.0 0.00 0.00 0.00 33 1018.7
20260502230005 79 298 6.0 7.0 0.00 0.00 0.00 33 1018.6
20260502225500 78 352 2.0 5.0 0.00 0.00 0.00 33 1018.5
20260502224958 77 287 7.0 8.0 0.00 0.00 0.00 33 1018.7
20260502224454 78 296 6.0 8.0 0.00 0.00 0.00 35 1018.7
20260502223951 79 268 2.0 4.0 0.00 0.00 0.00 33 1018.7
20260502223449 79 338 2.0 4.0 0.00 0.00 0.00 34 1018.6
20260502222947 79 322 2.0 5.0 0.00 0.00 0.00 32 1018.7
20260502222444 78 281 0.0 2.0 0.00 0.00 0.00 35 1018.7
20260502221944 76 225 6.0 6.0 0.00 0.00 0.00 35 1018.8
20260502221441 76 290 5.0 7.0 0.00 0.00 0.00 35 1018.8
20260502220938 77 329 4.0 6.0 0.00 0.00 0.00 35 1018.8
20260502220434 78 283 3.0 7.0 0.00 0.00 0.00 34 1018.7
20260502215931 77 341 3.0 9.0 0.00 0.00 0.00 34 1018.7
20260502215428 78 314 2.0 4.0 0.00 0.00 0.00 37 1018.9
20260502214925 78 269 1.0 2.0 0.00 0.00 0.00 38 1018.9
20260502214422 75 259 4.0 9.0 0.00 0.00 0.00 34 1019.0
20260502213919 76 298 6.0 12.0 0.00 0.00 0.00 35 1019.2
20260502213416 77 292 6.0 7.0 0.00 0.00 0.00 34 1019.2
20260502212915 78 323 5.0 5.0 0.00 0.00 0.00 34 1019.2
20260502212413 78 294 3.0 7.0 0.00 0.00 0.00 36 1019.2
20260502211910 78 12 4.0 9.0 0.00 0.00 0.00 35 1019.2
20260502211410 78 312 3.0 6.0 0.00 0.00 0.00 36 1019.4
20260502210908 78 336 2.0 3.0 0.00 0.00 0.00 36 1019.4
20260502210405 78 293 4.0 6.0 0.00 0.00 0.00 38 1019.4
20260502205902 77 296 3.0 4.0 0.00 0.00 0.00 35 1019.4
20260502205358 77 302 4.0 6.0 0.00 0.00 0.00 36 1019.4
20260502204856 75 299 6.0 10.0 0.00 0.00 0.00 37 1019.6
20260502204353 77 313 4.0 9.0 0.00 0.00 0.00 37 1019.5
20260502203850 77 287 1.0 4.0 0.00 0.00 0.00 35 1019.6
20260502203348 78 259 0.0 5.0 0.00 0.00 0.00 36 1019.6
20260502202843 77 292 4.0 6.0 0.00 0.00 0.00 35 1019.6
20260502202341 76 226 3.0 8.0 0.00 0.00 0.00 38 1019.8
20260502201838 76 305 7.0 11.0 0.00 0.00 0.00 36 1020.1
20260502201334 76 329 4.0 7.0 0.00 0.00 0.00 38 1019.9
20260502200831 76 343 3.0 7.0 0.00 0.00 0.00 35 1020.1
20260502200326 75 352 3.0 13.0 0.00 0.00 0.00 37 1019.9
20260502195825 75 303 7.0 10.0 0.00 0.00 0.00 35 1020.1
20260502195321 74 266 5.0 8.0 0.00 0.00 0.00 35 1020.1
20260502194818 74 279 7.0 10.0 0.00 0.00 0.00 34 1020.4
20260502194315 76 249 2.0 4.0 0.00 0.00 0.00 32 1020.4
20260502193810 75 338 2.0 5.0 0.00 0.00 0.00 36 1020.4
20260502193308 75 260 1.0 5.0 0.00 0.00 0.00 37 1020.4
20260502192803 74 282 5.0 7.0 0.00 0.00 0.00 38 1020.4
20260502192301 74 284 7.0 10.0 0.00 0.00 0.00 36 1020.7
20260502191758 74 292 8.0 15.0 0.00 0.00 0.00 36 1020.5
20260502191255 73 273 6.0 11.0 0.00 0.00 0.00 34 1020.7
20260502190753 75 309 7.0 8.0 0.00 0.00 0.00 35 1020.6
20260502190250 75 282 5.0 9.0 0.00 0.00 0.00 34 1020.7
20260502185750 75 298 7.0 9.0 0.00 0.00 0.00 36 1020.8
20260502185247 75 288 4.0 4.0 0.00 0.00 0.00 35 1020.8
20260502184743 75 303 2.0 7.0 0.00 0.00 0.00 34 1020.9
20260502184239 74 292 2.0 5.0 0.00 0.00 0.00 36 1021.0
20260502183736 74 315 3.0 7.0 0.00 0.00 0.00 37 1021.1
20260502183232 74 317 4.0 9.0 0.00 0.00 0.00 39 1021.0
20260502182727 73 99 1.0 6.0 0.00 0.00 0.00 33 1021.1
20260502182223 74 291 6.0 11.0 0.00 0.00 0.00 38 1021.2
20260502181720 73 305 3.0 8.0 0.00 0.00 0.00 38 1021.3
20260502181219 71 248 4.0 9.0 0.00 0.00 0.00 39 1021.4
20260502180716 75 266 1.0 5.0 0.00 0.00 0.00 41 1021.5
20260502180214 73 87 2.0 3.0 0.00 0.00 0.00 36 1021.4
20260502170137 70 284 3.0 7.0 0.00 0.00 0.00 43 1022.2
20260502164124 72 135 0.0 5.0 0.00 0.00 0.00 44 1022.0
20260502163620 71 321 1.0 6.0 0.00 0.00 0.00 43 1021.9
20260502163117 70 318 4.0 8.0 0.00 0.00 0.00 45 1022.1
20260502162614 70 99 1.0 6.0 0.00 0.00 0.00 44 1022.0
20260502162111 70 321 3.0 4.0 0.00 0.00 0.00 43 1022.0
20260502161608 70 276 3.0 6.0 0.00 0.00 0.00 45 1022.0
20260502161105 70 287 2.0 5.0 0.00 0.00 0.00 46 1022.1
20260502160603 69 305 3.0 6.0 0.00 0.00 0.00 49 1022.1
20260502152016 67 55 1.0 3.0 0.00 0.00 0.00 55 1021.8
20260502151512 65 296 1.0 5.0 0.00 0.00 0.00 55 1021.8
20260502151010 65 129 2.0 4.0 0.00 0.00 0.00 56 1021.7
20260502150508 65 304 3.0 4.0 0.00 0.00 0.00 54 1021.7
20260502130352 56 280 3.0 5.0 0.00 0.00 0.00 86 1020.9
20260502123335 54 290 2.0 3.0 0.00 0.00 0.00 87 1020.3
20260502122832 54 321 3.0 3.0 0.00 0.00 0.00 87 1020.3
20260502122327 54 310 2.0 4.0 0.00 0.00 0.00 87 1020.0
20260502121827 54 309 3.0 5.0 0.00 0.00 0.00 87 1020.4
20260502121323 53 336 3.0 3.0 0.00 0.00 0.00 88 1019.8
20260502120820 53 353 2.0 3.0 0.00 0.00 0.00 88 1019.9
20260502120317 53 301 2.0 3.0 0.00 0.00 0.00 88 1019.8
20260502115814 53 284 0.0 3.0 0.00 0.00 0.00 88 1019.7
20260502115311 53 355 2.0 4.0 0.00 0.00 0.00 87 1019.8
20260502114808 53 330 2.0 4.0 0.00 0.00 0.00 87 1019.6
20260502114304 53 330 2.0 4.0 0.00 0.00 0.00 87 1019.5
20260502113801 53 296 1.0 4.0 0.00 0.00 0.00 87 1019.3
20260502113259 53 19 2.0 4.0 0.00 0.00 0.00 87 1019.2
20260502112757 53 312 3.0 4.0 0.00 0.00 0.00 88 1019.2
20260502112254 53 295 1.0 3.0 0.00 0.00 0.00 88 1019.1
20260502111751 53 243 0.0 3.0 0.00 0.00 0.00 87 1019.0
20260502111249 53 327 3.0 4.0 0.00 0.00 0.00 87 1019.0
20260502110746 53 333 3.0 5.0 0.00 0.00 0.00 87 1019.1
20260502110244 53 304 2.0 3.0 0.00 0.00 0.00 88 1019.3
20260502105742 53 285 2.0 3.0 0.00 0.00 0.00 88 1019.2
20260502105237 53 260 2.0 3.0 0.00 0.00 0.00 87 1019.1
20260502104736 53 285 2.0 3.0 0.00 0.00 0.00 88 1019.0
20260502104233 52 314 1.0 2.0 0.00 0.00 0.00 88 1018.9
20260502103731 52 321 2.0 3.0 0.00 0.00 0.00 89 1018.8
20260502103228 52 307 2.0 3.0 0.00 0.00 0.00 89 1018.7
20260502102725 53 300 3.0 3.0 0.00 0.00 0.00 88 1018.6
20260502102221 52 0 1.0 2.0 0.00 0.00 0.00 89 1018.7
20260502101719 52 295 1.0 2.0 0.00 0.00 0.00 88 1018.7
20260502101218 53 337 2.0 4.0 0.00 0.00 0.00 89 1018.8
20260502100715 52 340 2.0 3.0 0.00 0.00 0.00 90 1018.7
20260502100213 52 45 0.0 2.0 0.00 0.00 0.00 90 1018.7
20260502091147 53 310 1.0 3.0 0.00 0.00 0.00 86 1018.5
20260502090644 53 316 2.0 3.0 0.00 0.00 0.00 86 1018.3
20260502090142 53 350 1.0 2.0 0.00 0.00 0.00 85 1018.4
20260502080110 53 352 2.0 2.0 0.00 0.00 0.00 86 1018.3
20260502071043 54 6 0.0 0.0 0.00 0.00 0.00 88 1018.5
20260502070541 54 305 1.0 1.0 0.00 0.00 0.00 89 1018.7
20260502070039 54 50 0.0 1.0 0.00 0.00 0.00 90 1018.6
20260502065537 54 44 0.0 0.0 0.00 0.00 0.00 90 1018.8
20260502065034 55 304 0.0 0.0 0.00 0.00 0.00 90 1018.8
20260502064533 55 1 0.0 2.0 0.00 0.00 0.00 89 1018.8
20260502064029 55 2 0.0 2.0 0.00 0.00 0.00 89 1019.0
20260502063527 55 342 2.0 3.0 0.00 0.00 0.00 89 1018.9
20260502063025 55 326 1.0 2.0 0.00 0.00 0.00 88 1018.7
20260502062521 55 307 0.0 2.0 0.00 0.00 0.00 88 1018.8
20260502062020 55 314 1.0 2.0 0.00 0.00 0.00 88 1018.6
20260502061518 54 32 2.0 2.0 0.00 0.00 0.00 89 1018.8
20260502061015 55 81 0.0 0.0 0.00 0.00 0.00 89 1018.6
20260502060509 55 99 1.0 2.0 0.00 0.00 0.00 89 1018.7
20260502060007 55 29 0.0 2.0 0.00 0.00 0.00 89 1018.6
20260502055504 55 37 1.0 2.0 0.00 0.00 0.00 89 1018.8
20260502055003 55 44 0.0 0.0 0.00 0.00 0.00 89 1018.8
20260502054501 55 349 0.0 0.0 0.00 0.00 0.00 89 1018.8
20260502053958 56 17 0.0 1.0 0.00 0.00 0.00 88 1018.7
20260502053455 56 23 0.0 1.0 0.00 0.00 0.00 88 1018.7
20260502052953 56 336 0.0 1.0 0.00 0.00 0.00 87 1018.8
20260502052451 56 12 0.0 1.0 0.00 0.00 0.00 87 1018.8
20260502051949 57 2 2.0 2.0 0.00 0.00 0.00 87 1018.9
20260502051446 57 348 0.0 1.0 0.00 0.00 0.00 87 1018.8
20260502050943 57 299 0.0 1.0 0.00 0.00 0.00 87 1018.7
20260502050440 57 299 0.0 0.0 0.00 0.00 0.00 87 1018.7
20260502045937 57 43 0.0 0.0 0.00 0.00 0.00 86 1018.7
20260502045434 57 324 0.0 1.0 0.00 0.00 0.00 86 1018.6
20260502044931 57 300 1.0 2.0 0.00 0.00 0.00 87 1018.6
20260502044426 56 50 0.0 0.0 0.00 0.00 0.00 88 1018.6
20260502043924 57 55 0.0 1.0 0.00 0.00 0.00 87 1018.6
20260502043421 57 56 0.0 1.0 0.00 0.00 0.00 87 1018.3
20260502042920 57 50 0.0 0.0 0.00 0.00 0.00 87 1018.6
20260502042418 57 66 0.0 0.0 0.00 0.00 0.00 87 1018.6
20260502041915 57 64 0.0 0.0 0.00 0.00 0.00 87 1018.6
20260502041413 57 309 0.0 0.0 0.00 0.00 0.00 87 1018.4
20260502040910 57 44 0.0 0.0 0.00 0.00 0.00 86 1018.4
20260502040406 57 22 0.0 1.0 0.00 0.00 0.00 86 1018.8
20260502035903 58 296 0.0 2.0 0.00 0.00 0.00 86 1018.7
20260502035359 58 269 0.0 2.0 0.00 0.00 0.00 85 1018.6
20260502034856 57 296 0.0 2.0 0.00 0.00 0.00 84 1018.6
20260502034355 57 348 1.0 3.0 0.00 0.00 0.00 83 1018.5
20260502033854 57 328 2.0 3.0 0.00 0.00 0.00 82 1018.5
20260502033351 58 299 0.0 1.0 0.00 0.00 0.00 80 1018.5
20260502032847 58 290 1.0 2.0 0.00 0.00 0.00 79 1018.2
20260502032343 58 37 0.0 0.0 0.00 0.00 0.00 79 1018.4
20260502031841 58 37 0.0 0.0 0.00 0.00 0.00 78 1018.4
20260502031339 58 315 0.0 1.0 0.00 0.00 0.00 78 1018.4
20260502030837 58 304 0.0 1.0 0.00 0.00 0.00 78 1018.5
20260502030335 58 299 0.0 1.0 0.00 0.00 0.00 78 1018.3
20260502025832 58 25 0.0 2.0 0.00 0.00 0.00 76 1018.1
20260502025330 58 17 0.0 2.0 0.00 0.00 0.00 75 1018.0
20260502024827 58 102 1.0 2.0 0.00 0.00 0.00 75 1018.1
20260502024325 58 91 1.0 3.0 0.00 0.00 0.00 75 1018.0
20260502023823 58 135 0.0 1.0 0.00 0.00 0.00 74 1018.2
20260502023320 59 72 2.0 2.0 0.00 0.00 0.00 73 1017.9
20260502022818 59 98 2.0 3.0 0.00 0.00 0.00 73 1017.9
20260502022314 59 82 2.0 3.0 0.00 0.00 0.00 72 1018.0
20260502021811 59 123 2.0 4.0 0.00 0.00 0.00 72 1017.9
20260502021308 59 111 2.0 3.0 0.00 0.00 0.00 74 1017.9
20260502020805 59 112 2.0 3.0 0.00 0.00 0.00 75 1017.6
20260502020302 60 105 2.0 4.0 0.00 0.00 0.00 75 1017.4
20260502015800 59 81 3.0 5.0 0.00 0.00 0.00 76 1017.4
20260502015256 59 114 2.0 4.0 0.00 0.00 0.00 77 1017.3
20260502014754 59 101 1.0 3.0 0.00 0.00 0.00 78 1017.3
20260502014251 59 117 1.0 3.0 0.00 0.00 0.00 78 1017.2
20260502013747 59 141 0.0 1.0 0.00 0.00 0.00 79 1017.1
20260502013243 59 94 2.0 2.0 0.00 0.00 0.00 79 1017.0
20260502012740 59 115 0.0 2.0 0.00 0.00 0.00 79 1016.9
20260502012237 59 129 0.0 2.0 0.00 0.00 0.00 78 1016.8
20260502011735 59 89 0.0 2.0 0.00 0.00 0.00 78 1016.8
20260502011230 59 22 0.0 1.0 0.00 0.00 0.00 77 1016.6
20260502010728 59 150 0.0 1.0 0.00 0.00 0.00 77 1016.6
20260502010224 59 22 0.0 1.0 0.00 0.00 0.00 77 1016.6
20260502005721 59 147 0.0 2.0 0.00 0.00 0.00 77 1016.6
20260502005219 60 85 1.0 1.0 0.00 0.00 0.00 77 1016.5
20260502004715 60 23 0.0 1.0 0.00 0.00 0.00 76 1016.4
20260502004212 60 21 1.0 2.0 0.00 0.00 0.00 76 1016.2
20260502003710 60 103 0.0 1.0 0.00 0.00 0.00 76 1016.3
20260502003207 60 89 0.0 1.0 0.00 0.00 0.00 75 1016.4
20260502002702 60 87 2.0 2.0 0.00 0.00 0.00 74 1016.4
20260502002201 60 107 1.0 2.0 0.00 0.00 0.00 75 1016.3
20260502001657 60 93 2.0 3.0 0.00 0.00 0.00 76 1016.3
20260502001155 60 120 2.0 3.0 0.00 0.00 0.00 74 1016.1